Retour au catalogue

GRUS-1E

ActifScienceSSO
NORAD 47935·PAYLOAD·🇯🇵 Japan

Lancé Mar 22, 2021 depuis Baikonur Cosmodrome

Loading…

Prochains Passages (prochaines 24 heures)

TLE

FraisSource: Space-Track

Époque: Sep 14, 2026, 15:46 UTC

1 47935U 21022D   26257.65747531  .00000078  00000-0  11072-4 0  9995
2 47935  97.5253 139.0809 0011073  22.6993 337.4718 14.99049341299359

Suivez GRUS-1E en temps réel avec AllMySat

Download on the App Store